• In Austria
  • List of Countries
  • For 7 days
  • Water Temperature
  • Satellite Maps
  • Weather Map
  • News
  • Weather Widgets
  • user-avatar
    Login

    Hourly Weather Suruç

    Today, 20 January, Saturday

    Time Temperature Precipitation Wind Pressure Humidity
    00:00 +4°C° 0 mm 3 mps 716 mmHg 67%
    01:00 +4°C° 0 mm 3 mps 717 mmHg 66%
    02:00 +4°C° 0 mm 3 mps 717 mmHg 66%
    03:00 +5°C° 0 mm 2 mps 717 mmHg 64%
    04:00 +4°C° 0 mm 2 mps 718 mmHg 65%
    05:00 +4°C° 0 mm 2 mps 718 mmHg 65%
    06:00 +4°C° 0 mm 2 mps 719 mmHg 66%
    07:00 +6°C° 0 mm 1 mps 719 mmHg 65%
    08:00 +6°C° 0 mm 1 mps 720 mmHg 64%
    09:00 +7°C° 0 mm 1 mps 720 mmHg 60%
    10:00 +8°C° 0 mm 1 mps 721 mmHg 56%
    11:00 +9°C° 0 mm 1 mps 721 mmHg 52%
    12:00 +10°C° 0 mm 1 mps 721 mmHg 48%
    13:00 +11°C° 0 mm 1 mps 721 mmHg 46%
    14:00 +12°C° 0 mm 1 mps 721 mmHg 44%
    15:00 +13°C° 0 mm 1 mps 721 mmHg 42%
    16:00 +12°C° 0 mm 1 mps 721 mmHg 46%
    17:00 +11°C° 0 mm 1 mps 721 mmHg 50%
    18:00 +10°C° 0 mm 1 mps 721 mmHg 54%
    19:00 +9°C° 0 mm 1 mps 721 mmHg 56%
    20:00 +9°C° 0 mm 1 mps 722 mmHg 58%
    21:00 +8°C° 0 mm 1 mps 722 mmHg 59%
    22:00 +8°C° 0 mm 1 mps 722 mmHg 61%
    23:00 +7°C° 0 mm 1 mps 722 mmHg 62%

    Tomorrow, 21 January, Sunday

    Time Temperature Precipitation Wind Pressure Humidity
    00:00 +7°C° 0 mm 1 mps 723 mmHg 63%
    01:00 +7°C° 0 mm 1 mps 723 mmHg 65%
    02:00 +6°C° 0 mm 1 mps 723 mmHg 66%
    03:00 +6°C° 0 mm 1 mps 723 mmHg 68%
    04:00 +6°C° 0 mm 1 mps 723 mmHg 69%
    05:00 +6°C° 0 mm 1 mps 723 mmHg 69%
    06:00 +6°C° 0 mm 1 mps 723 mmHg 70%
    07:00 +6°C° 0 mm 1 mps 723 mmHg 69%
    08:00 +6°C° 0 mm 2 mps 723 mmHg 67%
    09:00 +6°C° 0 mm 2 mps 723 mmHg 66%
    10:00 +8°C° 0 mm 2 mps 723 mmHg 61%
    11:00 +9°C° 0 mm 3 mps 724 mmHg 57%
    12:00 +10°C° 0 mm 3 mps 724 mmHg 52%
    13:00 +11°C° 0 mm 3 mps 723 mmHg 51%
    14:00 +11°C° 0 mm 4 mps 723 mmHg 50%
    15:00 +12°C° 0 mm 4 mps 722 mmHg 48%
    16:00 +11°C° 0 mm 4 mps 722 mmHg 52%
    17:00 +10°C° 0 mm 3 mps 722 mmHg 56%
    18:00 +9°C° 0 mm 3 mps 721 mmHg 60%
    19:00 +9°C° 0 mm 3 mps 721 mmHg 62%
    20:00 +7°C° 0 mm 4 mps 721 mmHg 64%
    21:00 +7°C° 0 mm 4 mps 721 mmHg 66%
    22:00 +7°C° 0 mm 4 mps 721 mmHg 67%
    23:00 +6°C° 0 mm 4 mps 721 mmHg 68%

    Day after tomorrow, 22 January, Monday

    Time Temperature Precipitation Wind Pressure Humidity
    00:00 +6°C° 0 mm 4 mps 720 mmHg 69%
    01:00 +6°C° 0 mm 4 mps 720 mmHg 70%
    02:00 +6°C° 0 mm 5 mps 719 mmHg 70%
    03:00 +6°C° 0 mm 5 mps 719 mmHg 70%
    04:00 +5°C° 0 mm 5 mps 718 mmHg 70%
    05:00 +5°C° 0 mm 5 mps 718 mmHg 69%
    06:00 +4°C° 0 mm 6 mps 717 mmHg 69%
    07:00 +4°C° 0 mm 6 mps 717 mmHg 67%
    08:00 +5°C° 0 mm 6 mps 717 mmHg 66%
    09:00 +5°C° 0 mm 6 mps 717 mmHg 65%
    10:00 +6°C° 0 mm 7 mps 716 mmHg 59%
    11:00 +9°C° 0 mm 7 mps 716 mmHg 53%
    12:00 +10°C° 0 mm 8 mps 716 mmHg 47%
    13:00 +11°C° 0 mm 7 mps 715 mmHg 44%
    14:00 +12°C° 0 mm 7 mps 714 mmHg 42%
    15:00 +13°C° 0 mm 6 mps 714 mmHg 40%
    16:00 +12°C° 0 mm 5 mps 714 mmHg 43%
    17:00 +10°C° 0 mm 5 mps 713 mmHg 47%
    18:00 +10°C° 0 mm 4 mps 713 mmHg 50%
    19:00 +10°C° 0 mm 4 mps 713 mmHg 51%
    20:00 +8°C° 0 mm 4 mps 714 mmHg 53%
    21:00 +8°C° 0 mm 4 mps 714 mmHg 54%
    22:00 +8°C° 0.1 mm 5 mps 713 mmHg 56%
    23:00 +7°C° 0.1 mm 5 mps 713 mmHg 58%

    23 January, Tuesday

    Time Temperature Precipitation Wind Pressure Humidity
    00:00 +7°C° 0.1 mm 5 mps 713 mmHg 60%
    01:00 +7°C° 0.3 mm 5 mps 712 mmHg 62%
    02:00 +6°C° 0.3 mm 5 mps 712 mmHg 63%
    03:00 +6°C° 0.3 mm 5 mps 711 mmHg 65%
    04:00 +5°C° 0.2 mm 6 mps 710 mmHg 65%
    05:00 +5°C° 0.2 mm 7 mps 710 mmHg 64%
    06:00 +5°C° 0.2 mm 8 mps 709 mmHg 63%
    07:00 +5°C° 1.3 mm 7 mps 710 mmHg 68%
    08:00 +5°C° 1.3 mm 5 mps 710 mmHg 73%
    09:00 +5°C° 1.3 mm 4 mps 710 mmHg 77%
    10:00 +6°C° 0.4 mm 4 mps 710 mmHg 77%
    11:00 +7°C° 0.4 mm 4 mps 710 mmHg 76%
    12:00 +8°C° 0.4 mm 4 mps 711 mmHg 75%
    13:00 +8°C° 0.3 mm 4 mps 711 mmHg 74%
    14:00 +10°C° 0.3 mm 4 mps 710 mmHg 72%
    15:00 +10°C° 0.3 mm 3 mps 710 mmHg 70%
    16:00 +10°C° 0.1 mm 3 mps 710 mmHg 74%
    17:00 +9°C° 0.1 mm 3 mps 711 mmHg 77%
    18:00 +8°C° 0.1 mm 3 mps 711 mmHg 80%
    19:00 +8°C° 0 mm 3 mps 711 mmHg 83%
    20:00 +7°C° 0 mm 2 mps 712 mmHg 85%
    21:00 +7°C° 0 mm 2 mps 712 mmHg 88%
    22:00 +7°C° 0.1 mm 2 mps 713 mmHg 88%
    23:00 +7°C° 0.1 mm 2 mps 713 mmHg 89%

    24 January, Wednesday

    Time Temperature Precipitation Wind Pressure Humidity
    00:00 +6°C° 0.1 mm 2 mps 713 mmHg 89%
    01:00 +6°C° 0.1 mm 2 mps 713 mmHg 89%
    02:00 +6°C° 0.1 mm 2 mps 714 mmHg 89%
    03:00 +7°C° 0.1 mm 1 mps 714 mmHg 89%
    04:00 +6°C° 0 mm 1 mps 714 mmHg 88%
    05:00 +6°C° 0 mm 1 mps 714 mmHg 87%
    06:00 +6°C° 0 mm 1 mps 715 mmHg 86%
    07:00 +6°C° 0 mm 1 mps 715 mmHg 82%
    08:00 +7°C° 0 mm 1 mps 716 mmHg 78%
    09:00 +6°C° 0 mm 2 mps 717 mmHg 73%
    10:00 +7°C° 0 mm 2 mps 717 mmHg 66%
    11:00 +8°C° 0 mm 2 mps 717 mmHg 58%
    12:00 +9°C° 0 mm 2 mps 717 mmHg 51%
    13:00 +10°C° 0 mm 2 mps 717 mmHg 48%
    14:00 +10°C° 0 mm 2 mps 717 mmHg 45%
    15:00 +12°C° 0 mm 1 mps 717 mmHg 43%
    16:00 +11°C° 0 mm 1 mps 717 mmHg 47%
    17:00 +10°C° 0 mm 1 mps 717 mmHg 51%
    18:00 +9°C° 0 mm 1 mps 717 mmHg 55%
    19:00 +8°C° 0 mm 2 mps 717 mmHg 57%
    20:00 +7°C° 0 mm 2 mps 718 mmHg 59%
    21:00 +7°C° 0 mm 2 mps 718 mmHg 60%
    22:00 +6°C° 0 mm 2 mps 718 mmHg 63%
    23:00 +5°C° 0 mm 3 mps 718 mmHg 65%

    25 January, Thursday

    Time Temperature Precipitation Wind Pressure Humidity
    00:00 +5°C° 0 mm 3 mps 718 mmHg 67%
    01:00 +5°C° 0.1 mm 3 mps 718 mmHg 69%
    02:00 +5°C° 0.1 mm 3 mps 718 mmHg 70%
    03:00 +5°C° 0.1 mm 3 mps 718 mmHg 72%
    04:00 +4°C° 0.3 mm 3 mps 718 mmHg 74%
    05:00 +4°C° 0.3 mm 3 mps 718 mmHg 77%
    06:00 +4°C° 0.3 mm 3 mps 718 mmHg 79%
    07:00 +4°C° 0.4 mm 3 mps 718 mmHg 81%
    08:00 +4°C° 0.4 mm 4 mps 718 mmHg 83%
    09:00 +4°C° 0.4 mm 4 mps 718 mmHg 85%
    10:00 +5°C° 0.3 mm 4 mps 718 mmHg 83%
    11:00 +5°C° 0.3 mm 4 mps 718 mmHg 81%
    12:00 +6°C° 0.3 mm 4 mps 718 mmHg 80%
    13:00 +6°C° 0.1 mm 4 mps 718 mmHg 77%
    14:00 +7°C° 0.1 mm 4 mps 717 mmHg 75%
    15:00 +8°C° 0.1 mm 4 mps 717 mmHg 73%
    16:00 +7°C° 0.3 mm 4 mps 717 mmHg 75%
    17:00 +7°C° 0.3 mm 4 mps 717 mmHg 77%
    18:00 +7°C° 0.3 mm 4 mps 717 mmHg 80%
    19:00 +6°C° 0.3 mm 4 mps 717 mmHg 81%
    20:00 +6°C° 0.3 mm 4 mps 717 mmHg 82%
    21:00 +6°C° 0.3 mm 4 mps 717 mmHg 83%
    22:00 +6°C° 0.1 mm 4 mps 717 mmHg 83%
    23:00 +6°C° 0.1 mm 4 mps 717 mmHg 84%
    Show more